TimeEDT,TemperatureF,Dew PointF,Humidity,Sea Level PressureIn,VisibilityMPH,Wind Direction,Wind SpeedMPH,Gust SpeedMPH,PrecipitationIn,Events,Conditions,WindDirDegrees,DateUTC
12:54 AM,50.0,48.0,93,30.16,8.0,Calm,Calm,-,N/A,,Clear,0,2013-05-07 04:54:00
1:33 AM,48.2,46.4,93,30.15,1.5,Calm,Calm,-,N/A,,Partly Cloudy,0,2013-05-07 05:33:00
1:35 AM,48.2,46.4,93,30.15,0.8,Calm,Calm,-,N/A,,Mist,0,2013-05-07 05:35:00
1:44 AM,46.4,44.6,93,30.15,1.2,Calm,Calm,-,N/A,,Partly Cloudy,0,2013-05-07 05:44:00
1:47 AM,46.4,44.6,93,30.15,4.0,Calm,Calm,-,N/A,,Partly Cloudy,0,2013-05-07 05:47:00
1:54 AM,48.0,45.0,89,30.15,3.0,Calm,Calm,-,N/A,,Scattered Clouds,0,2013-05-07 05:54:00
2:11 AM,46.4,44.6,93,30.15,5.0,Calm,Calm,-,N/A,,Mostly Cloudy,0,2013-05-07 06:11:00
2:18 AM,46.4,46.4,100,30.15,1.8,Calm,Calm,-,N/A,,Overcast,0,2013-05-07 06:18:00
2:34 AM,46.4,44.6,93,30.14,2.0,Calm,Calm,-,N/A,,Overcast,0,2013-05-07 06:34:00
2:43 AM,46.4,44.6,93,30.14,10.0,Calm,Calm,-,N/A,,Overcast,0,2013-05-07 06:43:00
2:54 AM,46.9,44.1,90,30.14,10.0,Calm,Calm,-,N/A,,Overcast,0,2013-05-07 06:54:00
2:59 AM,46.4,44.6,93,30.14,1.8,Calm,Calm,-,N/A,,Overcast,0,2013-05-07 06:59:00
3:02 AM,46.4,44.6,93,30.14,0.8,Calm,Calm,-,N/A,,Mist,0,2013-05-07 07:02:00
3:15 AM,44.6,44.6,100,30.14,0.8,Calm,Calm,-,0.00,Rain,Light Rain,0,2013-05-07 07:15:00
3:24 AM,46.4,42.8,87,30.15,1.0,Calm,Calm,-,0.00,,Mist,0,2013-05-07 07:24:00
3:27 AM,46.4,44.6,93,30.15,2.0,Calm,Calm,-,0.00,,Mostly Cloudy,0,2013-05-07 07:27:00
3:35 AM,46.4,44.6,93,30.15,7.0,Calm,Calm,-,0.00,,Mostly Cloudy,0,2013-05-07 07:35:00
3:42 AM,46.4,44.6,93,30.14,5.0,Calm,Calm,-,0.00,,Mostly Cloudy,0,2013-05-07 07:42:00
3:54 AM,46.0,44.1,93,30.14,7.0,Calm,Calm,-,0.00,,Scattered Clouds,0,2013-05-07 07:54:00
4:03 AM,46.4,44.6,93,30.15,1.5,Calm,Calm,-,N/A,,Scattered Clouds,0,2013-05-07 08:03:00
4:05 AM,46.4,44.6,93,30.15,1.0,Calm,Calm,-,N/A,,Mist,0,2013-05-07 08:05:00
4:08 AM,44.6,44.6,100,30.15,0.5,Calm,Calm,-,N/A,Fog,Fog,0,2013-05-07 08:08:00
4:15 AM,46.4,44.6,93,30.14,0.2,Calm,Calm,-,N/A,Fog,Fog,0,2013-05-07 08:15:00
4:24 AM,44.6,42.8,93,30.14,1.2,Calm,Calm,-,N/A,,Overcast,0,2013-05-07 08:24:00
4:26 AM,44.6,42.8,93,30.14,4.0,Calm,Calm,-,N/A,,Overcast,0,2013-05-07 08:26:00
4:54 AM,44.1,42.1,93,30.14,0.8,Calm,Calm,-,N/A,,Overcast,0,2013-05-07 08:54:00
5:54 AM,44.1,42.1,93,30.14,0.2,Calm,Calm,-,0.00,Fog,Fog,0,2013-05-07 09:54:00
6:54 AM,46.0,45.0,96,30.15,0.2,Calm,Calm,-,0.00,Fog,Fog,0,2013-05-07 10:54:00
7:33 AM,48.2,46.4,93,30.15,1.2,Calm,Calm,-,N/A,,Overcast,0,2013-05-07 11:33:00
7:39 AM,48.2,48.2,100,30.15,3.0,Calm,Calm,-,N/A,,Overcast,0,2013-05-07 11:39:00
7:54 AM,51.1,50.0,96,30.15,9.0,Calm,Calm,-,N/A,,Mostly Cloudy,0,2013-05-07 11:54:00
8:16 AM,53.6,51.8,94,30.16,10.0,Calm,Calm,-,N/A,,Partly Cloudy,0,2013-05-07 12:16:00
8:54 AM,59.0,52.0,78,30.16,10.0,Calm,Calm,-,N/A,,Clear,0,2013-05-07 12:54:00
9:54 AM,64.9,50.0,58,30.16,10.0,Calm,Calm,-,N/A,,Clear,0,2013-05-07 13:54:00
10:54 AM,69.1,51.1,53,30.16,10.0,Variable,4.6,-,N/A,,Clear,0,2013-05-07 14:54:00
11:54 AM,71.1,50.0,47,30.14,10.0,Calm,Calm,-,N/A,,Clear,0,2013-05-07 15:54:00
12:54 PM,73.9,48.9,41,30.12,10.0,Variable,4.6,-,N/A,,Clear,0,2013-05-07 16:54:00
1:54 PM,75.9,48.9,38,30.10,10.0,East,8.1,-,N/A,,Scattered Clouds,100,2013-05-07 17:54:00
2:54 PM,75.9,48.9,38,30.08,10.0,South,8.1,16.1,N/A,,Partly Cloudy,190,2013-05-07 18:54:00
3:54 PM,77.0,50.0,39,30.07,10.0,Variable,4.6,-,N/A,,Scattered Clouds,0,2013-05-07 19:54:00
4:54 PM,75.0,52.0,44,30.06,10.0,ESE,10.4,-,N/A,,Mostly Cloudy,110,2013-05-07 20:54:00
5:54 PM,72.0,52.0,49,30.06,10.0,SSE,11.5,-,N/A,,Clear,160,2013-05-07 21:54:00
6:54 PM,71.1,52.0,51,30.07,10.0,SSE,9.2,-,N/A,,Clear,150,2013-05-07 22:54:00
7:54 PM,66.9,53.1,61,30.09,10.0,South,5.8,-,N/A,,Clear,170,2013-05-07 23:54:00
8:54 PM,64.0,53.1,67,30.10,10.0,Calm,Calm,-,N/A,,Clear,0,2013-05-08 00:54:00
9:54 PM,64.0,55.0,73,30.12,10.0,SE,5.8,-,N/A,,Clear,140,2013-05-08 01:54:00
10:54 PM,63.0,55.0,75,30.12,10.0,Calm,Calm,-,N/A,,Clear,0,2013-05-08 02:54:00
11:54 PM,57.0,53.1,87,30.12,10.0,North,3.5,-,N/A,,Partly Cloudy,350,2013-05-08 03:54:00